Погода в Верхнем Жириме

Россия / Республика Бурятия     51°19′09″N   107°13′16″E
темп.,
°C
ветер,
м/с
пор.,
м/с
влажн.,
%
обл.,
%
осадки,
мм/ч
давл.,
гПа
погр.,
м
4 марта, чт
чт423:00−14сз3588100 0.0 101987
02:00−17ссз31478100 0.0 1023599
05:00−19сз31185100 0.0 1027381
08:00−22сз238867 0.0 103243
11:00−15сз596024 0.0 1032843
14:00−13сз7105812 0.0 10321339
17:00−14сз69660 0.0 10341004
20:00−19ссз23870 0.0 103837
5 марта, пт
пт523:00−21с12910 0.0 104020
02:00−23вюв00900 0.0 104120
05:00−23юв129528 0.0 104120
08:00−23юв229764 0.0 104120
11:00−16ююв238185 0.0 1037315
14:00−12ю377451 0.0 1033565
17:00−11ю248626 0.0 1030261
20:00−15юв129122 0.0 103120
6 марта, сб
сб623:00−17ююв119544 0.0 103020
02:00−17ююв119321 0.0 102920
05:00−16ююв118967 0.0 102820
08:00−16с229183 0.0 103067
11:00−11зюз2275100 0.0 1030291
14:00−7юз337871 0.0 1029391
17:00−7ююз239095 0.0 1027214
20:00−11ююв229259 0.0 103021
7 марта, вс
вс723:00−12ююв22930 0.0 102921
02:00−13ююв22930 0.0 102821
05:00−14ююв22930 0.0 102720
08:00−14ююв12920 0.0 102720
11:00−8ю34740 0.0 1025341
14:00−5ююз357327 0.0 1022415
17:00−3ююз367795 0.0 1021489
20:00−9ююв228948 0.0 102421
8 марта, пн
пн823:00−11ю129256 0.0 102521
02:00−11ю229345 0.0 102521
05:00−11ю1291100 0.0 102521
08:00−12ю129164 0.0 102821
11:00−6ююз23760 0.0 1025259
14:00−3ююз347610 0.0 1023342
17:00−2ююз36773 0.0 1021493
20:00−8ю22882 0.0 102321